Location: Home
(42.5358°N, 72.7383°W)
Time: 20:15:44
(UTC-04:00)

First-Move - Pass Details

Date: 25 August 2022
Orbit: 569 x 659 km, 97.6° (Epoch: 27 September)

Event Time Altitude Azimuth Distance (km) Brightness Sun altitude
Rises 03:39:59 0° 32° (NNE) 2,829 ? -24.5°
Reaches altitude 10° 03:43:10 10° 59° (ENE) 1,905 ? -24.1°
Maximum altitude 03:45:18 14° 90° (E) 1,657 ? -23.8°
Drops below altitude 10° 03:47:25 10° 122° (ESE) 1,880 ? -23.5°
Enters shadow 03:49:37 - 143° (SE) 2,468 ? -23.2°
